Location: Be Tobo
(6.6442°N, 10.6239°W)
Time: 01:00:13
(UTC+00:00)

Meteor 1-23 Rocket - Pass Details

Date: 18 September 2020
Orbit: 835 x 890 km, 81.3° (Epoch: 21 October)

Event Time Altitude Azimuth Distance (km) Brightness Sun altitude
Rises 18:56:41 0° 0° (N) 3,381 7.4 -4.9°
Reaches altitude 10° 18:59:07 10° 3° (N) 2,444 6.6 -5.5°
Maximum altitude 19:04:35 65° 85° (E) 914 4.2 -6.8°
Drops below altitude 10° 19:10:03 10° 166° (SSE) 2,443 6.4 -8.2°
Sets 19:12:29 0° 169° (S) 3,381 7.2 -8.8°
